Home   Weather   Ibiza   Past weeks

Flag for Spain Past Weather in Ibiza, Ibiza, Spain — Yesterday and Last 2 Weeks

Now
73 °F

Passing clouds.


Feels Like: 76 °F
Forecast: 65 / 78 °F
Wind: 6 mph from Northeast

Location: Ibiza / Es Codola

Current Time: Sep 29, 2016 at 8:51:57 PM

Latest Report: Sep 29, 2016 at 8:00 PM


Visibility: N/A

Pressure: 30.18 "Hg

Humidity: 69%

Dew Point: 63 °F

Location of IbizaLocation

Past Weather in Ibiza — Graph

°F

Ibiza Temperature Yesterday

Maximum temperature yesterday: 79 °F (at 3:30 PM)
Minimum temperature yesterday: 63 °F (at 5:30 AM)
Average temperature yesterday: 72 °F

High & Low Weather Summary for the Past Weeks

 TemperatureHumidityPressure
High82 °F (Sep 17, 3:30 PM)94% (Sep 22, 4:00 AM)30.33 "Hg (Sep 22, 4:00 AM)
Low59 °F (Sep 19, 4:30 AM)29% (Sep 15, 12:00 AM)29.89 "Hg (Sep 14, 7:00 PM)
Average73 °F66%30.10 "Hg
* Reported Sep 14 7:00 PM — Sep 29 7:30 PM, Ibiza, Weather by CustomWeather, © 2016

Note: Actual official high and low records may vary slightly from our data, if they occured in-between our weather recording intervals... More about our weather records

Advertising

Ibiza Weather History for the Previous 24 Hours

Scroll right to see more
 ConditionsComfort  
Time TempWeatherWind HumidityBarometerVisibility
7:30 PM
Thu, Sep 29
75 °FPassing clouds.7 mph65%30.18 "HgN/A
7:00 PM75 °FPassing clouds.9 mph65%30.18 "HgN/A
6:30 PM77 °FPassing clouds.8 mph65%30.18 "HgN/A
6:00 PM77 °FPassing clouds.9 mph65%30.21 "HgN/A
5:30 PM77 °FPassing clouds.10 mph65%30.21 "HgN/A
5:00 PM77 °FPassing clouds.9 mph65%30.21 "HgN/A
4:30 PM77 °FPassing clouds.9 mph65%30.21 "HgN/A
4:00 PM79 °FScattered clouds.10 mph61%30.21 "HgN/A
3:30 PM79 °FScattered clouds.12 mph61%30.24 "HgN/A
3:00 PM79 °FScattered clouds.12 mph61%30.24 "HgN/A
2:30 PM79 °FScattered clouds.12 mph58%30.24 "HgN/A
2:00 PM79 °FScattered clouds.12 mph61%30.27 "HgN/A
1:30 PM79 °FScattered clouds.12 mph58%30.27 "HgN/A
1:00 PM79 °FScattered clouds.12 mph58%30.27 "HgN/A
12:30 PM79 °FScattered clouds.12 mph58%30.30 "HgN/A
12:00 PM77 °FScattered clouds.12 mph61%30.30 "HgN/A
11:30 AM77 °FScattered clouds.10 mph61%30.30 "HgN/A
11:00 AM75 °FScattered clouds.9 mph69%30.30 "HgN/A
10:30 AM77 °FScattered clouds.10 mph61%30.30 "HgN/A
10:00 AM75 °FScattered clouds.10 mph65%30.30 "HgN/A
9:30 AM75 °FPartly sunny.7 mph69%30.30 "HgN/A
9:00 AM73 °FScattered clouds.5 mph74%30.30 "HgN/A
8:30 AM72 °FScattered clouds.7 mph78%30.30 "HgN/A
8:00 AM68 °FScattered clouds.3 mph83%30.30 "HgN/A
7:30 AM70 °FPassing clouds.7 mph78%30.27 "HgN/A
7:00 AM70 °FPassing clouds.6 mph78%30.30 "HgN/A
6:30 AM70 °FPassing clouds.3 mph78%30.30 "HgN/A
6:00 AM73 °FPassing clouds.7 mph69%30.30 "HgN/A
5:30 AM73 °FPassing clouds.8 mph69%30.30 "HgN/A
5:00 AM73 °FPassing clouds.9 mph69%30.30 "HgN/A
4:30 AM73 °FPassing clouds.10 mph69%30.30 "HgN/A
4:00 AM73 °FPassing clouds.9 mph69%30.30 "HgN/A
3:30 AM73 °FPassing clouds.9 mph69%30.33 "HgN/A
3:00 AM73 °FPassing clouds.9 mph74%30.33 "HgN/A
2:30 AM73 °FPassing clouds.10 mph69%30.33 "HgN/A
2:00 AM73 °FPassing clouds.10 mph69%30.33 "HgN/A
1:30 AM73 °FPassing clouds.12 mph69%30.33 "HgN/A
1:00 AM75 °FPassing clouds.13 mph69%30.33 "HgN/A
12:30 AM75 °FPassing clouds.14 mph69%30.33 "HgN/A
12:00 AM75 °FPassing clouds.14 mph69%30.33 "HgN/A
11:30 PM
Wed, Sep 28
75 °FPassing clouds.12 mph69%30.33 "HgN/A
11:00 PM75 °FPassing clouds.14 mph65%30.33 "HgN/A
10:30 PM75 °FPassing clouds.14 mph65%30.33 "HgN/A
10:00 PM75 °FPassing clouds.14 mph65%30.33 "HgN/A
9:30 PM75 °FPassing clouds.14 mph69%30.33 "HgN/A
9:00 PM75 °FPassing clouds.12 mph65%30.30 "HgN/A
8:30 PM75 °FPassing clouds.9 mph69%30.30 "HgN/A
8:00 PM75 °FPassing clouds.10 mph69%30.30 "HgN/A
Weather by CustomWeather, © 2016

See weather overviewHow to use our weather pages